owner,sensor,date,latitude,longitude,vertical_datum,wind_speed,wind_to_direction,wind_speed_of_gust,qcFlag 
ADCP,ioos:station:wmo:42390:1,2015-06-01T00:30:00Z,26.1290,-94.8980,1.0,99.0,-9999.0,99.0,'11144222,99999999,11144222' 
ADCP,ioos:station:wmo:42390:1,2015-06-01T01:30:00Z,26.1290,-94.8980,1.0,99.0,-9999.0,99.0,'11144222,99999999,11144222' 
ADCP,ioos:station:wmo:42390:1,2015-06-01T05:30:00Z,26.1290,-94.8980,1.0,99.0,-9999.0,99.0,'11144222,99999999,11144222' 
ADCP,ioos:station:wmo:42390:1,2015-06-01T06:30:00Z,26.1290,-94.8980,1.0,99.0,-9999.0,99.0,'11144222,99999999,11144222' 
ADCP,ioos:station:wmo:42390:1,2015-06-01T07:30:00Z,26.1290,-94.8980,1.0,99.0,-9999.0,99.0,'11144222,99999999,11144222' 
ADCP,ioos:station:wmo:42390:1,2015-06-01T08:30:00Z,26.1290,-94.8980,1.0,99.0,-9999.0,99.0,'11144222,99999999,11144222' 
ADCP,ioos:station:wmo:42390:1,2015-06-01T09:30:00Z,26.1290,-94.8980,1.0,99.0,-9999.0,99.0,'11144222,99999999,11144222' 
ADCP,ioos:station:wmo:42390:1,2015-06-01T10:30:00Z,26.1290,-94.8980,1.0,99.0,-9999.0,99.0,'11144222,99999999,11144222' 
ADCP,ioos:station:wmo:42390:1,2015-06-01T11:30:00Z,26.1290,-94.8980,1.0,99.0,-9999.0,99.0,'11144222,99999999,11144222' 
ADCP,ioos:station:wmo:42390:1,2015-06-01T13:30:00Z,26.1290,-94.8980,1.0,99.0,-9999.0,99.0,'11144222,99999999,11144222' 
ADCP,ioos:station:wmo:42390:1,2015-06-01T14:30:00Z,26.1290,-94.8980,1.0,99.0,-9999.0,99.0,'11144222,99999999,11144222' 
ADCP,ioos:station:wmo:42390:1,2015-06-01T16:30:00Z,26.1290,-94.8980,1.0,99.0,-9999.0,99.0,'11144222,99999999,11144222' 
ADCP,ioos:station:wmo:42390:1,2015-06-01T17:30:00Z,26.1290,-94.8980,1.0,99.0,-9999.0,99.0,'11144222,99999999,11144222' 
ADCP,ioos:station:wmo:42390:1,2015-06-01T18:30:00Z,26.1290,-94.8980,1.0,99.0,-9999.0,99.0,'11144222,99999999,11144222' 
ADCP,ioos:station:wmo:42390:1,2015-06-01T19:30:00Z,26.1290,-94.8980,1.0,99.0,-9999.0,99.0,'11144222,99999999,11144222' 
ADCP,ioos:station:wmo:42390:1,2015-06-01T20:30:00Z,26.1290,-94.8980,1.0,99.0,-9999.0,99.0,'11144222,99999999,11144222' 
ADCP,ioos:station:wmo:42390:1,2015-06-01T21:30:00Z,26.1290,-94.8980,1.0,99.0,-9999.0,99.0,'11144222,99999999,11144222' 
ADCP,ioos:station:wmo:42390:1,2015-06-01T22:30:00Z,26.1290,-94.8980,1.0,99.0,-9999.0,99.0,'11144222,99999999,11144222' 
ADCP,ioos:station:wmo:42390:1,2015-06-02T00:30:00Z,26.1290,-94.8980,1.0,99.0,-9999.0,99.0,'11144222,99999999,11144222' 
ADCP,ioos:station:wmo:42390:1,2015-06-02T03:30:00Z,26.1290,-94.8980,1.0,3.7,39.0,99.0,'11111222,11111222,11144222' 
ADCP,ioos:station:wmo:42390:1,2015-06-02T04:30:00Z,26.1290,-94.8980,1.0,4.1,58.0,99.0,'11111222,11111222,11144222' 
ADCP,ioos:station:wmo:42390:1,2015-06-02T06:30:00Z,26.1290,-94.8980,1.0,3.2,68.0,99.0,'11111222,11111222,11144222' 
ADCP,ioos:station:wmo:42390:1,2015-06-02T07:30:00Z,26.1290,-94.8980,1.0,3.5,73.0,99.0,'11111222,11111222,11144222' 
ADCP,ioos:station:wmo:42390:1,2015-06-02T08:30:00Z,26.1290,-94.8980,1.0,3.4,66.0,99.0,'11111222,11111222,11144222' 
ADCP,ioos:station:wmo:42390:1,2015-06-02T09:30:00Z,26.1290,-94.8980,1.0,3.6,71.0,99.0,'11111222,11111222,11144222' 
ADCP,ioos:station:wmo:42390:1,2015-06-02T10:30:00Z,26.1290,-94.8980,1.0,3.5,58.0,99.0,'11111222,11111222,11144222' 
ADCP,ioos:station:wmo:42390:1,2015-06-02T11:30:00Z,26.1290,-94.8980,1.0,3.3,43.0,99.0,'11111222,11111222,11144222' 
ADCP,ioos:station:wmo:42390:1,2015-06-02T12:30:00Z,26.1290,-94.8980,1.0,3.3,33.0,99.0,'11111222,11111222,11144222' 
ADCP,ioos:station:wmo:42390:1,2015-06-02T13:30:00Z,26.1290,-94.8980,1.0,3.2,56.0,99.0,'11111222,11111222,11144222' 
ADCP,ioos:station:wmo:42390:1,2015-06-02T14:30:00Z,26.1290,-94.8980,1.0,2.3,75.0,99.0,'11111222,11111222,11144222' 
ADCP,ioos:station:wmo:42390:1,2015-06-02T15:30:00Z,26.1290,-94.8980,1.0,2.1,68.0,99.0,'11111222,11111222,11144222' 
ADCP,ioos:station:wmo:42390:1,2015-06-02T16:30:00Z,26.1290,-94.8980,1.0,2.2,61.0,99.0,'11111222,11111222,11144222' 
ADCP,ioos:station:wmo:42390:1,2015-06-02T19:30:00Z,26.1290,-94.8980,1.0,1.6,53.0,99.0,'11111222,11111222,11144222' 
ADCP,ioos:station:wmo:42390:1,2015-06-02T20:30:00Z,26.1290,-94.8980,1.0,1.3,25.0,99.0,'11111222,11111222,11144222' 
ADCP,ioos:station:wmo:42390:1,2015-06-02T22:30:00Z,26.1290,-94.8980,1.0,0.5,14.0,99.0,'11111222,11111222,11144222' 
ADCP,ioos:station:wmo:42390:1,2015-06-02T23:30:00Z,26.1290,-94.8980,1.0,1.0,22.0,99.0,'11111222,11111222,11144222' 
ADCP,ioos:station:wmo:42390:1,2015-06-03T02:30:00Z,26.1290,-94.8980,1.0,3.7,29.0,99.0,'11111222,11111222,11144222' 
ADCP,ioos:station:wmo:42390:1,2015-06-03T04:30:00Z,26.1290,-94.8980,1.0,4.3,46.0,99.0,'11111222,11111222,11144222' 
ADCP,ioos:station:wmo:42390:1,2015-06-03T05:30:00Z,26.1290,-94.8980,1.0,3.9,58.0,99.0,'11111222,11111222,11144222' 
ADCP,ioos:station:wmo:42390:1,2015-06-03T06:30:00Z,26.1290,-94.8980,1.0,4.2,74.0,99.0,'11111222,11111222,11144222' 
ADCP,ioos:station:wmo:42390:1,2015-06-03T07:30:00Z,26.1290,-94.8980,1.0,4.0,89.0,99.0,'11111222,11111222,11144222' 
ADCP,ioos:station:wmo:42390:1,2015-06-03T09:30:00Z,26.1290,-94.8980,1.0,3.5,100.0,99.0,'11111222,11111222,11144222' 
ADCP,ioos:station:wmo:42390:1,2015-06-03T10:30:00Z,26.1290,-94.8980,1.0,3.2,117.0,99.0,'11111222,11111222,11144222' 
ADCP,ioos:station:wmo:42390:1,2015-06-03T11:30:00Z,26.1290,-94.8980,1.0,2.6,111.0,99.0,'11111222,11111222,11144222' 
ADCP,ioos:station:wmo:42390:1,2015-06-03T12:30:00Z,26.1290,-94.8980,1.0,2.4,93.0,99.0,'11111222,11111222,11144222' 
ADCP,ioos:station:wmo:42390:1,2015-06-03T13:30:00Z,26.1290,-94.8980,1.0,2.5,102.0,99.0,'11111222,11111222,11144222' 
ADCP,ioos:station:wmo:42390:1,2015-06-03T14:30:00Z,26.1290,-94.8980,1.0,2.3,126.0,99.0,'11111222,11111222,11144222' 
ADCP,ioos:station:wmo:42390:1,2015-06-03T15:30:00Z,26.1290,-94.8980,1.0,1.8,118.0,99.0,'11111222,11111222,11144222' 
ADCP,ioos:station:wmo:42390:1,2015-06-03T16:30:00Z,26.1290,-94.8980,1.0,1.7,106.0,99.0,'11111222,11111222,11144222' 
ADCP,ioos:station:wmo:42390:1,2015-06-03T17:30:00Z,26.1290,-94.8980,1.0,1.6,79.0,99.0,'11111222,11111222,11144222' 
ADCP,ioos:station:wmo:42390:1,2015-06-03T18:30:00Z,26.1290,-94.8980,1.0,2.1,77.0,99.0,'11111222,11111222,11144222' 
ADCP,ioos:station:wmo:42390:1,2015-06-03T19:30:00Z,26.1290,-94.8980,1.0,2.3,78.0,99.0,'11111222,11111222,11144222' 
ADCP,ioos:station:wmo:42390:1,2015-06-03T20:30:00Z,26.1290,-94.8980,1.0,1.7,87.0,99.0,'11111222,11111222,11144222' 
ADCP,ioos:station:wmo:42390:1,2015-06-03T21:30:00Z,26.1290,-94.8980,1.0,1.7,97.0,99.0,'11111222,11111222,11144222' 
ADCP,ioos:station:wmo:42390:1,2015-06-03T22:30:00Z,26.1290,-94.8980,1.0,1.8,110.0,99.0,'11111222,11111222,11144222' 
ADCP,ioos:station:wmo:42390:1,2015-06-03T23:30:00Z,26.1290,-94.8980,1.0,2.2,97.0,99.0,'11111222,11111222,11144222' 
ADCP,ioos:station:wmo:42390:1,2015-06-04T00:30:00Z,26.1290,-94.8980,1.0,2.4,92.0,99.0,'11111222,11111222,11144222' 
ADCP,ioos:station:wmo:42390:1,2015-06-04T01:30:00Z,26.1290,-94.8980,1.0,2.5,95.0,99.0,'11111222,11111222,11144222' 
ADCP,ioos:station:wmo:42390:1,2015-06-04T02:30:00Z,26.1290,-94.8980,1.0,3.6,106.0,99.0,'11111222,11111222,11144222' 
ADCP,ioos:station:wmo:42390:1,2015-06-04T03:30:00Z,26.1290,-94.8980,1.0,3.7,107.0,99.0,'11111222,11111222,11144222' 
ADCP,ioos:station:wmo:42390:1,2015-06-04T04:30:00Z,26.1290,-94.8980,1.0,3.8,107.0,99.0,'11111222,11111222,11144222' 
ADCP,ioos:station:wmo:42390:1,2015-06-04T05:30:00Z,26.1290,-94.8980,1.0,4.5,115.0,99.0,'11111222,11111222,11144222' 
ADCP,ioos:station:wmo:42390:1,2015-06-04T06:30:00Z,26.1290,-94.8980,1.0,5.3,123.0,99.0,'11111222,11111222,11144222' 
ADCP,ioos:station:wmo:42390:1,2015-06-04T07:30:00Z,26.1290,-94.8980,1.0,4.7,121.0,99.0,'11111222,11111222,11144222' 
ADCP,ioos:station:wmo:42390:1,2015-06-04T08:30:00Z,26.1290,-94.8980,1.0,4.9,118.0,99.0,'11111222,11111222,11144222' 
ADCP,ioos:station:wmo:42390:1,2015-06-04T09:30:00Z,26.1290,-94.8980,1.0,5.2,111.0,99.0,'11111222,11111222,11144222' 
ADCP,ioos:station:wmo:42390:1,2015-06-04T10:30:00Z,26.1290,-94.8980,1.0,5.5,106.0,99.0,'11111222,11111222,11144222' 
ADCP,ioos:station:wmo:42390:1,2015-06-04T11:30:00Z,26.1290,-94.8980,1.0,5.6,109.0,99.0,'11111222,11111222,11144222' 
ADCP,ioos:station:wmo:42390:1,2015-06-04T12:30:00Z,26.1290,-94.8980,1.0,5.6,109.0,99.0,'11111222,11111222,11144222' 
ADCP,ioos:station:wmo:42390:1,2015-06-04T13:30:00Z,26.1290,-94.8980,1.0,5.1,106.0,99.0,'11111222,11111222,11144222' 
ADCP,ioos:station:wmo:42390:1,2015-06-04T14:30:00Z,26.1290,-94.8980,1.0,4.7,106.0,99.0,'11111222,11111222,11144222' 
ADCP,ioos:station:wmo:42390:1,2015-06-04T15:30:00Z,26.1290,-94.8980,1.0,4.6,103.0,99.0,'11111222,11111222,11144222' 
ADCP,ioos:station:wmo:42390:1,2015-06-04T16:30:00Z,26.1290,-94.8980,1.0,4.7,103.0,99.0,'11111222,11111222,11144222' 
ADCP,ioos:station:wmo:42390:1,2015-06-04T17:30:00Z,26.1290,-94.8980,1.0,4.4,102.0,99.0,'11111222,11111222,11144222' 
ADCP,ioos:station:wmo:42390:1,2015-06-04T18:30:00Z,26.1290,-94.8980,1.0,4.5,92.0,99.0,'11111222,11111222,11144222' 
ADCP,ioos:station:wmo:42390:1,2015-06-04T19:30:00Z,26.1290,-94.8980,1.0,4.3,97.0,99.0,'11111222,11111222,11144222' 
ADCP,ioos:station:wmo:42390:1,2015-06-04T20:30:00Z,26.1290,-94.8980,1.0,4.0,103.0,99.0,'11111222,11111222,11144222' 
ADCP,ioos:station:wmo:42390:1,2015-06-04T21:30:00Z,26.1290,-94.8980,1.0,3.6,94.0,99.0,'11111222,11111222,11144222' 
ADCP,ioos:station:wmo:42390:1,2015-06-04T22:30:00Z,26.1290,-94.8980,1.0,3.6,76.0,99.0,'11111222,11111222,11144222' 
ADCP,ioos:station:wmo:42390:1,2015-06-04T23:30:00Z,26.1290,-94.8980,1.0,3.8,78.0,99.0,'11111222,11111222,11144222' 
ADCP,ioos:station:wmo:42390:1,2015-06-05T00:30:00Z,26.1290,-94.8980,1.0,3.7,84.0,99.0,'11111222,11111222,11144222' 
ADCP,ioos:station:wmo:42390:1,2015-06-05T01:30:00Z,26.1290,-94.8980,1.0,4.2,77.0,99.0,'11111222,11111222,11144222' 
ADCP,ioos:station:wmo:42390:1,2015-06-05T02:30:00Z,26.1290,-94.8980,1.0,3.9,72.0,99.0,'11111222,11111222,11144222' 
ADCP,ioos:station:wmo:42390:1,2015-06-05T03:30:00Z,26.1290,-94.8980,1.0,4.7,74.0,99.0,'11111222,11111222,11144222' 
ADCP,ioos:station:wmo:42390:1,2015-06-05T04:30:00Z,26.1290,-94.8980,1.0,5.2,82.0,99.0,'11111222,11111222,11144222' 
ADCP,ioos:station:wmo:42390:1,2015-06-05T05:30:00Z,26.1290,-94.8980,1.0,5.2,91.0,99.0,'11111222,11111222,11144222' 
ADCP,ioos:station:wmo:42390:1,2015-06-05T06:30:00Z,26.1290,-94.8980,1.0,4.6,105.0,99.0,'11111222,11111222,11144222' 
ADCP,ioos:station:wmo:42390:1,2015-06-05T07:30:00Z,26.1290,-94.8980,1.0,4.6,105.0,99.0,'11111222,11111222,11144222' 
ADCP,ioos:station:wmo:42390:1,2015-06-05T08:30:00Z,26.1290,-94.8980,1.0,4.3,108.0,99.0,'11111222,11111222,11144222' 
ADCP,ioos:station:wmo:42390:1,2015-06-05T09:30:00Z,26.1290,-94.8980,1.0,4.2,116.0,99.0,'11111222,11111222,11144222' 
ADCP,ioos:station:wmo:42390:1,2015-06-05T10:30:00Z,26.1290,-94.8980,1.0,3.7,112.0,99.0,'11111222,11111222,11144222' 
ADCP,ioos:station:wmo:42390:1,2015-06-05T11:30:00Z,26.1290,-94.8980,1.0,3.0,101.0,99.0,'11111222,11111222,11144222' 
ADCP,ioos:station:wmo:42390:1,2015-06-05T12:30:00Z,26.1290,-94.8980,1.0,2.6,90.0,99.0,'11111222,11111222,11144222' 
ADCP,ioos:station:wmo:42390:1,2015-06-05T13:30:00Z,26.1290,-94.8980,1.0,2.5,74.0,99.0,'11111222,11111222,11144222' 
ADCP,ioos:station:wmo:42390:1,2015-06-05T14:30:00Z,26.1290,-94.8980,1.0,2.0,75.0,99.0,'11111222,11111222,11144222' 
ADCP,ioos:station:wmo:42390:1,2015-06-05T15:30:00Z,26.1290,-94.8980,1.0,2.0,84.0,99.0,'11111222,11111222,11144222' 
ADCP,ioos:station:wmo:42390:1,2015-06-05T16:30:00Z,26.1290,-94.8980,1.0,2.2,64.0,99.0,'11111222,11111222,11144222' 
ADCP,ioos:station:wmo:42390:1,2015-06-05T17:30:00Z,26.1290,-94.8980,1.0,2.6,58.0,99.0,'11111222,11111222,11144222' 
ADCP,ioos:station:wmo:42390:1,2015-06-05T18:30:00Z,26.1290,-94.8980,1.0,3.0,63.0,99.0,'11111222,11111222,11144222' 
ADCP,ioos:station:wmo:42390:1,2015-06-05T19:30:00Z,26.1290,-94.8980,1.0,3.0,58.0,99.0,'11111222,11111222,11144222' 
ADCP,ioos:station:wmo:42390:1,2015-06-05T20:30:00Z,26.1290,-94.8980,1.0,3.1,49.0,99.0,'11111222,11111222,11144222' 
ADCP,ioos:station:wmo:42390:1,2015-06-05T21:30:00Z,26.1290,-94.8980,1.0,3.4,48.0,99.0,'11111222,11111222,11144222' 
ADCP,ioos:station:wmo:42390:1,2015-06-05T22:30:00Z,26.1290,-94.8980,1.0,3.4,61.0,99.0,'11111222,11111222,11144222' 
ADCP,ioos:station:wmo:42390:1,2015-06-05T23:30:00Z,26.1290,-94.8980,1.0,3.0,65.0,99.0,'11111222,11111222,11144222' 
ADCP,ioos:station:wmo:42390:1,2015-06-06T00:30:00Z,26.1290,-94.8980,1.0,3.4,62.0,99.0,'11111222,11111222,11144222' 
ADCP,ioos:station:wmo:42390:1,2015-06-06T01:30:00Z,26.1290,-94.8980,1.0,2.9,69.0,99.0,'11111222,11111222,11144222' 
ADCP,ioos:station:wmo:42390:1,2015-06-06T02:30:00Z,26.1290,-94.8980,1.0,3.0,77.0,99.0,'11111222,11111222,11144222' 
ADCP,ioos:station:wmo:42390:1,2015-06-06T03:30:00Z,26.1290,-94.8980,1.0,3.2,86.0,99.0,'11111222,11111222,11144222' 
ADCP,ioos:station:wmo:42390:1,2015-06-06T04:30:00Z,26.1290,-94.8980,1.0,3.7,84.0,99.0,'11111222,11111222,11144222' 
ADCP,ioos:station:wmo:42390:1,2015-06-06T05:30:00Z,26.1290,-94.8980,1.0,3.9,90.0,99.0,'11111222,11111222,11144222' 
ADCP,ioos:station:wmo:42390:1,2015-06-06T06:30:00Z,26.1290,-94.8980,1.0,4.1,91.0,99.0,'11111222,11111222,11144222' 
ADCP,ioos:station:wmo:42390:1,2015-06-06T07:30:00Z,26.1290,-94.8980,1.0,5.3,95.0,99.0,'11111222,11111222,11144222' 
ADCP,ioos:station:wmo:42390:1,2015-06-06T08:30:00Z,26.1290,-94.8980,1.0,4.5,90.0,99.0,'11111222,11111222,11144222' 
ADCP,ioos:station:wmo:42390:1,2015-06-06T09:30:00Z,26.1290,-94.8980,1.0,4.3,87.0,99.0,'11111222,11111222,11144222' 
ADCP,ioos:station:wmo:42390:1,2015-06-06T10:30:00Z,26.1290,-94.8980,1.0,3.4,86.0,99.0,'11111222,11111222,11144222' 
ADCP,ioos:station:wmo:42390:1,2015-06-06T11:30:00Z,26.1290,-94.8980,1.0,3.9,84.0,99.0,'11111222,11111222,11144222' 
ADCP,ioos:station:wmo:42390:1,2015-06-06T12:30:00Z,26.1290,-94.8980,1.0,3.9,85.0,99.0,'11111222,11111222,11144222' 
ADCP,ioos:station:wmo:42390:1,2015-06-06T13:30:00Z,26.1290,-94.8980,1.0,3.7,75.0,99.0,'11111222,11111222,11144222' 
ADCP,ioos:station:wmo:42390:1,2015-06-06T14:30:00Z,26.1290,-94.8980,1.0,3.8,80.0,99.0,'11111222,11111222,11144222' 
ADCP,ioos:station:wmo:42390:1,2015-06-06T15:30:00Z,26.1290,-94.8980,1.0,3.6,73.0,99.0,'11111222,11111222,11144222' 
ADCP,ioos:station:wmo:42390:1,2015-06-06T16:30:00Z,26.1290,-94.8980,1.0,3.5,66.0,99.0,'11111222,11111222,11144222' 
ADCP,ioos:station:wmo:42390:1,2015-06-06T17:30:00Z,26.1290,-94.8980,1.0,3.2,57.0,99.0,'11111222,11111222,11144222' 
ADCP,ioos:station:wmo:42390:1,2015-06-06T18:30:00Z,26.1290,-94.8980,1.0,2.8,56.0,99.0,'11111222,11111222,11144222' 
ADCP,ioos:station:wmo:42390:1,2015-06-06T19:30:00Z,26.1290,-94.8980,1.0,2.5,55.0,99.0,'11111222,11111222,11144222' 
ADCP,ioos:station:wmo:42390:1,2015-06-06T20:30:00Z,26.1290,-94.8980,1.0,2.7,44.0,99.0,'11111222,11111222,11144222' 
ADCP,ioos:station:wmo:42390:1,2015-06-06T21:30:00Z,26.1290,-94.8980,1.0,3.2,37.0,99.0,'11111222,11111222,11144222' 
ADCP,ioos:station:wmo:42390:1,2015-06-06T22:30:00Z,26.1290,-94.8980,1.0,3.3,42.0,99.0,'11111222,11111222,11144222' 
ADCP,ioos:station:wmo:42390:1,2015-06-06T23:30:00Z,26.1290,-94.8980,1.0,3.4,40.0,99.0,'11111222,11111222,11144222' 
ADCP,ioos:station:wmo:42390:1,2015-06-07T00:30:00Z,26.1290,-94.8980,1.0,4.1,42.0,99.0,'11111222,11111222,11144222' 
ADCP,ioos:station:wmo:42390:1,2015-06-07T01:30:00Z,26.1290,-94.8980,1.0,5.0,55.0,99.0,'11111222,11111222,11144222' 
ADCP,ioos:station:wmo:42390:1,2015-06-07T02:30:00Z,26.1290,-94.8980,1.0,5.3,65.0,99.0,'11111222,11111222,11144222' 
ADCP,ioos:station:wmo:42390:1,2015-06-07T03:30:00Z,26.1290,-94.8980,1.0,5.5,77.0,99.0,'11111222,11111222,11144222' 
ADCP,ioos:station:wmo:42390:1,2015-06-07T04:30:00Z,26.1290,-94.8980,1.0,5.1,81.0,99.0,'11111222,11111222,11144222' 
ADCP,ioos:station:wmo:42390:1,2015-06-07T05:30:00Z,26.1290,-94.8980,1.0,5.2,88.0,99.0,'11111222,11111222,11144222' 
ADCP,ioos:station:wmo:42390:1,2015-06-07T06:30:00Z,26.1290,-94.8980,1.0,4.7,93.0,99.0,'11111222,11111222,11144222' 
ADCP,ioos:station:wmo:42390:1,2015-06-07T07:30:00Z,26.1290,-94.8980,1.0,4.7,101.0,99.0,'11111222,11111222,11144222' 
ADCP,ioos:station:wmo:42390:1,2015-06-07T08:30:00Z,26.1290,-94.8980,1.0,4.4,113.0,99.0,'11111222,11111222,11144222' 
ADCP,ioos:station:wmo:42390:1,2015-06-07T09:30:00Z,26.1290,-94.8980,1.0,3.7,120.0,99.0,'11111222,11111222,11144222' 
ADCP,ioos:station:wmo:42390:1,2015-06-07T10:30:00Z,26.1290,-94.8980,1.0,3.7,114.0,99.0,'11111222,11111222,11144222' 
ADCP,ioos:station:wmo:42390:1,2015-06-07T11:30:00Z,26.1290,-94.8980,1.0,3.6,113.0,99.0,'11111222,11111222,11144222' 
ADCP,ioos:station:wmo:42390:1,2015-06-07T12:30:00Z,26.1290,-94.8980,1.0,2.8,127.0,99.0,'11111222,11111222,11144222' 
ADCP,ioos:station:wmo:42390:1,2015-06-07T13:30:00Z,26.1290,-94.8980,1.0,2.4,111.0,99.0,'11111222,11111222,11144222' 
ADCP,ioos:station:wmo:42390:1,2015-06-07T14:30:00Z,26.1290,-94.8980,1.0,2.5,88.0,99.0,'11111222,11111222,11144222' 
ADCP,ioos:station:wmo:42390:1,2015-06-07T15:30:00Z,26.1290,-94.8980,1.0,3.0,78.0,99.0,'11111222,11111222,11144222' 
ADCP,ioos:station:wmo:42390:1,2015-06-07T16:30:00Z,26.1290,-94.8980,1.0,3.6,83.0,99.0,'11111222,11111222,11144222' 
ADCP,ioos:station:wmo:42390:1,2015-06-07T17:30:00Z,26.1290,-94.8980,1.0,4.2,79.0,99.0,'11111222,11111222,11144222' 
ADCP,ioos:station:wmo:42390:1,2015-06-07T18:30:00Z,26.1290,-94.8980,1.0,4.8,83.0,99.0,'11111222,11111222,11144222' 
ADCP,ioos:station:wmo:42390:1,2015-06-07T19:30:00Z,26.1290,-94.8980,1.0,99.0,-9999.0,99.0,'11144222,99999999,11144222' 
ADCP,ioos:station:wmo:42390:1,2015-06-07T20:30:00Z,26.1290,-94.8980,1.0,99.0,-9999.0,99.0,'11144222,99999999,11144222' 
ADCP,ioos:station:wmo:42390:1,2015-06-07T21:30:00Z,26.1290,-94.8980,1.0,99.0,-9999.0,99.0,'11144222,99999999,11144222' 
ADCP,ioos:station:wmo:42390:1,2015-06-07T22:30:00Z,26.1290,-94.8980,1.0,99.0,-9999.0,99.0,'11144222,99999999,11144222' 
ADCP,ioos:station:wmo:42390:1,2015-06-07T23:30:00Z,26.1290,-94.8980,1.0,99.0,-9999.0,99.0,'11144222,99999999,11144222' 
ADCP,ioos:station:wmo:42390:1,2015-06-08T00:30:00Z,26.1290,-94.8980,1.0,99.0,-9999.0,99.0,'11144222,99999999,11144222' 
ADCP,ioos:station:wmo:42390:1,2015-06-08T01:30:00Z,26.1290,-94.8980,1.0,99.0,-9999.0,99.0,'11144222,99999999,11144222' 
ADCP,ioos:station:wmo:42390:1,2015-06-08T03:30:00Z,26.1290,-94.8980,1.0,99.0,-9999.0,99.0,'11144222,99999999,11144222' 
ADCP,ioos:station:wmo:42390:1,2015-06-08T04:30:00Z,26.1290,-94.8980,1.0,99.0,-9999.0,99.0,'11144222,99999999,11144222' 
ADCP,ioos:station:wmo:42390:1,2015-06-08T05:30:00Z,26.1290,-94.8980,1.0,3.9,100.0,99.0,'11111222,11111222,11144222' 
ADCP,ioos:station:wmo:42390:1,2015-06-08T06:30:00Z,26.1290,-94.8980,1.0,4.4,113.0,99.0,'11111222,11111222,11144222' 
ADCP,ioos:station:wmo:42390:1,2015-06-08T07:30:00Z,26.1290,-94.8980,1.0,4.7,121.0,99.0,'11111222,11111222,11144222' 
ADCP,ioos:station:wmo:42390:1,2015-06-08T08:30:00Z,26.1290,-94.8980,1.0,4.7,115.0,99.0,'11111222,11111222,11144222' 
ADCP,ioos:station:wmo:42390:1,2015-06-08T09:30:00Z,26.1290,-94.8980,1.0,4.8,109.0,99.0,'11111222,11111222,11144222' 
ADCP,ioos:station:wmo:42390:1,2015-06-08T10:30:00Z,26.1290,-94.8980,1.0,5.1,103.0,99.0,'11111222,11111222,11144222' 
ADCP,ioos:station:wmo:42390:1,2015-06-08T11:30:00Z,26.1290,-94.8980,1.0,4.4,108.0,99.0,'11111222,11111222,11144222' 
ADCP,ioos:station:wmo:42390:1,2015-06-08T12:30:00Z,26.1290,-94.8980,1.0,3.7,116.0,99.0,'11111222,11111222,11144222' 
ADCP,ioos:station:wmo:42390:1,2015-06-08T13:30:00Z,26.1290,-94.8980,1.0,3.7,115.0,99.0,'11111222,11111222,11144222' 
ADCP,ioos:station:wmo:42390:1,2015-06-08T14:30:00Z,26.1290,-94.8980,1.0,3.1,106.0,99.0,'11111222,11111222,11144222' 
ADCP,ioos:station:wmo:42390:1,2015-06-08T16:30:00Z,26.1290,-94.8980,1.0,2.4,100.0,99.0,'11111222,11111222,11144222' 
ADCP,ioos:station:wmo:42390:1,2015-06-08T17:30:00Z,26.1290,-94.8980,1.0,2.9,97.0,99.0,'11111222,11111222,11144222' 
ADCP,ioos:station:wmo:42390:1,2015-06-08T18:30:00Z,26.1290,-94.8980,1.0,3.4,125.0,99.0,'11111222,11111222,11144222' 
ADCP,ioos:station:wmo:42390:1,2015-06-08T19:30:00Z,26.1290,-94.8980,1.0,3.3,127.0,99.0,'11111222,11111222,11144222' 
ADCP,ioos:station:wmo:42390:1,2015-06-08T20:30:00Z,26.1290,-94.8980,1.0,3.4,130.0,99.0,'11111222,11111222,11144222' 
ADCP,ioos:station:wmo:42390:1,2015-06-08T21:30:00Z,26.1290,-94.8980,1.0,3.5,129.0,99.0,'11111222,11111222,11144222' 
ADCP,ioos:station:wmo:42390:1,2015-06-08T22:30:00Z,26.1290,-94.8980,1.0,2.9,115.0,99.0,'11111222,11111222,11144222' 
ADCP,ioos:station:wmo:42390:1,2015-06-08T23:30:00Z,26.1290,-94.8980,1.0,2.6,103.0,99.0,'11111222,11111222,11144222' 
ADCP,ioos:station:wmo:42390:1,2015-06-09T00:30:00Z,26.1290,-94.8980,1.0,1.7,95.0,99.0,'11111222,11111222,11144222' 
ADCP,ioos:station:wmo:42390:1,2015-06-09T01:30:00Z,26.1290,-94.8980,1.0,1.9,113.0,99.0,'11111222,11111222,11144222' 
ADCP,ioos:station:wmo:42390:1,2015-06-09T02:30:00Z,26.1290,-94.8980,1.0,2.2,97.0,99.0,'11111222,11111222,11144222' 
ADCP,ioos:station:wmo:42390:1,2015-06-09T03:30:00Z,26.1290,-94.8980,1.0,2.0,85.0,99.0,'11111222,11111222,11144222' 
ADCP,ioos:station:wmo:42390:1,2015-06-09T04:30:00Z,26.1290,-94.8980,1.0,2.0,79.0,99.0,'11111222,11111222,11144222' 
ADCP,ioos:station:wmo:42390:1,2015-06-09T05:30:00Z,26.1290,-94.8980,1.0,3.1,101.0,99.0,'11111222,11111222,11144222' 
ADCP,ioos:station:wmo:42390:1,2015-06-09T06:30:00Z,26.1290,-94.8980,1.0,3.2,106.0,99.0,'11111222,11111222,11144222' 
ADCP,ioos:station:wmo:42390:1,2015-06-09T07:30:00Z,26.1290,-94.8980,1.0,2.3,113.0,99.0,'11111222,11111222,11144222' 
ADCP,ioos:station:wmo:42390:1,2015-06-09T08:30:00Z,26.1290,-94.8980,1.0,2.5,143.0,99.0,'11111222,11111222,11144222' 
ADCP,ioos:station:wmo:42390:1,2015-06-09T09:30:00Z,26.1290,-94.8980,1.0,2.1,140.0,99.0,'11111222,11111222,11144222' 
ADCP,ioos:station:wmo:42390:1,2015-06-09T10:30:00Z,26.1290,-94.8980,1.0,4.0,147.0,99.0,'11111222,11111222,11144222' 
ADCP,ioos:station:wmo:42390:1,2015-06-09T11:30:00Z,26.1290,-94.8980,1.0,4.9,136.0,99.0,'11111222,11111222,11144222' 
ADCP,ioos:station:wmo:42390:1,2015-06-09T12:30:00Z,26.1290,-94.8980,1.0,4.8,144.0,99.0,'11111222,11111222,11144222' 
ADCP,ioos:station:wmo:42390:1,2015-06-09T13:30:00Z,26.1290,-94.8980,1.0,4.7,150.0,99.0,'11111222,11111222,11144222' 
ADCP,ioos:station:wmo:42390:1,2015-06-09T14:30:00Z,26.1290,-94.8980,1.0,4.1,158.0,99.0,'11111222,11111222,11144222' 
ADCP,ioos:station:wmo:42390:1,2015-06-09T17:30:00Z,26.1290,-94.8980,1.0,1.6,150.0,99.0,'11111222,11111222,11144222' 
ADCP,ioos:station:wmo:42390:1,2015-06-09T18:30:00Z,26.1290,-94.8980,1.0,1.4,142.0,99.0,'11111222,11111222,11144222' 
ADCP,ioos:station:wmo:42390:1,2015-06-09T19:30:00Z,26.1290,-94.8980,1.0,1.5,254.0,99.0,'11111222,11111222,11144222' 
ADCP,ioos:station:wmo:42390:1,2015-06-09T20:30:00Z,26.1290,-94.8980,1.0,1.9,237.0,99.0,'11111222,11111222,11144222' 
ADCP,ioos:station:wmo:42390:1,2015-06-09T21:30:00Z,26.1290,-94.8980,1.0,1.6,240.0,99.0,'11111222,11111222,11144222' 
ADCP,ioos:station:wmo:42390:1,2015-06-09T23:30:00Z,26.1290,-94.8980,1.0,0.4,347.0,99.0,'11111222,11111222,11144222' 
ADCP,ioos:station:wmo:42390:1,2015-06-10T00:30:00Z,26.1290,-94.8980,1.0,0.9,334.0,99.0,'11111222,11111222,11144222' 
ADCP,ioos:station:wmo:42390:1,2015-06-10T01:30:00Z,26.1290,-94.8980,1.0,13.7,136.0,99.0,'11111222,11111222,11144222' 
ADCP,ioos:station:wmo:42390:1,2015-06-10T02:30:00Z,26.1290,-94.8980,1.0,2.5,31.0,99.0,'11111222,11111222,11144222' 
ADCP,ioos:station:wmo:42390:1,2015-06-10T03:30:00Z,26.1290,-94.8980,1.0,2.9,55.0,99.0,'11111222,11111222,11144222' 
ADCP,ioos:station:wmo:42390:1,2015-06-10T04:30:00Z,26.1290,-94.8980,1.0,3.4,76.0,99.0,'11111222,11111222,11144222' 
ADCP,ioos:station:wmo:42390:1,2015-06-10T05:30:00Z,26.1290,-94.8980,1.0,4.2,95.0,99.0,'11111222,11111222,11144222' 
ADCP,ioos:station:wmo:42390:1,2015-06-10T06:30:00Z,26.1290,-94.8980,1.0,4.8,97.0,99.0,'11111222,11111222,11144222' 
ADCP,ioos:station:wmo:42390:1,2015-06-10T07:30:00Z,26.1290,-94.8980,1.0,5.2,114.0,99.0,'11111222,11111222,11144222' 
ADCP,ioos:station:wmo:42390:1,2015-06-10T08:30:00Z,26.1290,-94.8980,1.0,5.3,130.0,99.0,'11111222,11111222,11144222' 